• In Denmark
  • List of Countries
  • For 7 days
  • Water Temperature
  • Satellite Maps
  • Weather Map
  • Weather Widgets
  • user-avatar
    Login

    Hourly Weather Townsville

    Today, 24 September, Monday

    Time Temperature Precipitation Wind Pressure Humidity
    00:00 +19°C° 0 mm 4 mps 757 mmHg 84%
    01:00 +18°C° 0 mm 4 mps 757 mmHg 87%
    02:00 +18°C° 0 mm 4 mps 757 mmHg 88%
    03:00 +18°C° 0 mm 4 mps 757 mmHg 90%
    04:00 +17°C° 0 mm 3 mps 756 mmHg 92%
    05:00 +18°C° 0 mm 3 mps 757 mmHg 90%
    06:00 +18°C° 0 mm 3 mps 757 mmHg 87%
    07:00 +19°C° 0 mm 3 mps 757 mmHg 85%
    08:00 +22°C° 0 mm 3 mps 757 mmHg 70%
    09:00 +26°C° 0 mm 4 mps 757 mmHg 56%
    10:00 +28°C° 0 mm 4 mps 757 mmHg 41%
    11:00 +29°C° 0 mm 4 mps 757 mmHg 38%
    12:00 +32°C° 0 mm 5 mps 756 mmHg 34%
    13:00 +33°C° 0 mm 5 mps 755 mmHg 31%
    14:00 +32°C° 0 mm 6 mps 755 mmHg 35%
    15:00 +30°C° 0 mm 6 mps 755 mmHg 38%
    16:00 +29°C° 0 mm 6 mps 754 mmHg 45%
    17:00 +27°C° 0 mm 6 mps 755 mmHg 54%
    18:00 +24°C° 0 mm 6 mps 755 mmHg 62%
    19:00 +22°C° 0 mm 6 mps 755 mmHg 71%
    20:00 +21°C° 0 mm 5 mps 756 mmHg 74%
    21:00 +21°C° 0 mm 5 mps 756 mmHg 77%
    22:00 +20°C° 0 mm 5 mps 757 mmHg 81%
    23:00 +20°C° 0 mm 5 mps 757 mmHg 84%

    Tomorrow, 25 September, Tuesday

    Time Temperature Precipitation Wind Pressure Humidity
    00:00 +20°C° 0 mm 5 mps 757 mmHg 86%
    01:00 +19°C° 0 mm 5 mps 756 mmHg 89%
    02:00 +19°C° 0 mm 4 mps 756 mmHg 91%
    03:00 +19°C° 0 mm 4 mps 756 mmHg 92%
    04:00 +19°C° 0 mm 4 mps 756 mmHg 93%
    05:00 +19°C° 0 mm 4 mps 756 mmHg 92%
    06:00 +19°C° 0 mm 4 mps 756 mmHg 90%
    07:00 +20°C° 0 mm 4 mps 756 mmHg 89%
    08:00 +22°C° 0 mm 5 mps 757 mmHg 76%
    09:00 +26°C° 0 mm 5 mps 757 mmHg 63%
    10:00 +28°C° 0 mm 5 mps 757 mmHg 50%
    11:00 +29°C° 0 mm 6 mps 756 mmHg 46%
    12:00 +30°C° 0 mm 6 mps 756 mmHg 42%
    13:00 +32°C° 0 mm 6 mps 755 mmHg 38%
    14:00 +30°C° 0 mm 6 mps 755 mmHg 40%
    15:00 +30°C° 0 mm 6 mps 754 mmHg 43%
    16:00 +29°C° 0 mm 6 mps 754 mmHg 45%
    17:00 +27°C° 0 mm 6 mps 754 mmHg 54%
    18:00 +24°C° 0 mm 6 mps 755 mmHg 63%
    19:00 +22°C° 0 mm 6 mps 755 mmHg 71%
    20:00 +22°C° 0 mm 6 mps 756 mmHg 74%
    21:00 +21°C° 0 mm 6 mps 756 mmHg 77%
    22:00 +21°C° 0 mm 6 mps 757 mmHg 80%
    23:00 +20°C° 0 mm 5 mps 756 mmHg 83%

    Day after tomorrow, 26 September, Wednesday

    Time Temperature Precipitation Wind Pressure Humidity
    00:00 +20°C° 0 mm 5 mps 756 mmHg 86%
    01:00 +19°C° 0 mm 5 mps 756 mmHg 90%
    02:00 +19°C° 0 mm 5 mps 756 mmHg 91%
    03:00 +19°C° 0 mm 5 mps 755 mmHg 93%
    04:00 +17°C° 0 mm 5 mps 755 mmHg 94%
    05:00 +19°C° 0 mm 5 mps 756 mmHg 92%
    06:00 +19°C° 0 mm 5 mps 756 mmHg 89%
    07:00 +20°C° 0 mm 5 mps 756 mmHg 86%
    08:00 +22°C° 0 mm 5 mps 757 mmHg 73%
    09:00 +26°C° 0 mm 6 mps 757 mmHg 60%
    10:00 +28°C° 0 mm 6 mps 757 mmHg 47%
    11:00 +28°C° 0.1 mm 6 mps 757 mmHg 46%
    12:00 +29°C° 0.1 mm 6 mps 756 mmHg 45%
    13:00 +29°C° 0.1 mm 6 mps 755 mmHg 44%
    14:00 +29°C° 0 mm 6 mps 755 mmHg 43%
    15:00 +29°C° 0 mm 6 mps 755 mmHg 42%
    16:00 +29°C° 0 mm 6 mps 754 mmHg 40%
    17:00 +27°C° 0 mm 5 mps 755 mmHg 50%
    18:00 +25°C° 0 mm 5 mps 755 mmHg 60%
    19:00 +22°C° 0 mm 4 mps 756 mmHg 70%
    20:00 +21°C° 0 mm 4 mps 756 mmHg 75%
    21:00 +21°C° 0 mm 4 mps 756 mmHg 81%
    22:00 +20°C° 0 mm 4 mps 757 mmHg 86%
    23:00 +20°C° 0 mm 4 mps 757 mmHg 88%

    27 September, Thursday

    Time Temperature Precipitation Wind Pressure Humidity
    00:00 +19°C° 0 mm 4 mps 756 mmHg 91%
    01:00 +19°C° 0 mm 4 mps 756 mmHg 93%
    02:00 +19°C° 0 mm 4 mps 756 mmHg 93%
    03:00 +19°C° 0 mm 4 mps 756 mmHg 94%
    04:00 +19°C° 0 mm 4 mps 756 mmHg 95%
    05:00 +19°C° 0 mm 4 mps 756 mmHg 92%
    06:00 +20°C° 0 mm 4 mps 757 mmHg 89%
    07:00 +21°C° 0 mm 4 mps 757 mmHg 86%
    08:00 +23°C° 0 mm 5 mps 758 mmHg 73%
    09:00 +26°C° 0 mm 5 mps 758 mmHg 60%
    10:00 +29°C° 0 mm 6 mps 758 mmHg 46%
    11:00 +30°C° 0 mm 6 mps 757 mmHg 43%
    12:00 +30°C° 0 mm 6 mps 757 mmHg 40%
    13:00 +32°C° 0 mm 6 mps 756 mmHg 37%
    14:00 +30°C° 0 mm 6 mps 756 mmHg 38%
    15:00 +30°C° 0 mm 6 mps 755 mmHg 39%
    16:00 +29°C° 0 mm 6 mps 755 mmHg 40%
    17:00 +27°C° 0 mm 5 mps 755 mmHg 49%
    18:00 +25°C° 0 mm 5 mps 756 mmHg 58%
    19:00 +22°C° 0 mm 4 mps 756 mmHg 67%
    20:00 +21°C° 0 mm 4 mps 757 mmHg 72%
    21:00 +20°C° 0 mm 4 mps 757 mmHg 78%
    22:00 +20°C° 0 mm 4 mps 758 mmHg 84%
    23:00 +20°C° 0 mm 4 mps 757 mmHg 86%

    28 September, Friday

    Time Temperature Precipitation Wind Pressure Humidity
    00:00 +19°C° 0 mm 4 mps 757 mmHg 89%
    01:00 +19°C° 0 mm 4 mps 756 mmHg 92%
    02:00 +19°C° 0 mm 4 mps 756 mmHg 92%
    03:00 +19°C° 0 mm 4 mps 756 mmHg 93%
    04:00 +19°C° 0 mm 4 mps 756 mmHg 94%
    05:00 +20°C° 0 mm 4 mps 757 mmHg 91%
    06:00 +20°C° 0 mm 5 mps 757 mmHg 87%
    07:00 +21°C° 0 mm 5 mps 758 mmHg 84%
    08:00 +23°C° 0 mm 5 mps 758 mmHg 72%
    09:00 +26°C° 0 mm 5 mps 758 mmHg 60%
    10:00 +28°C° 0 mm 5 mps 758 mmHg 49%
    11:00 +29°C° 0 mm 5 mps 757 mmHg 45%
    12:00 +30°C° 0 mm 6 mps 757 mmHg 42%
    13:00 +32°C° 0 mm 6 mps 756 mmHg 39%
    14:00 +30°C° 0 mm 6 mps 756 mmHg 40%
    15:00 +30°C° 0 mm 6 mps 755 mmHg 41%
    16:00 +29°C° 0 mm 6 mps 755 mmHg 43%
    17:00 +27°C° 0 mm 5 mps 755 mmHg 52%
    18:00 +25°C° 0 mm 5 mps 756 mmHg 62%
    19:00 +22°C° 0 mm 4 mps 756 mmHg 71%
    20:00 +21°C° 0 mm 4 mps 756 mmHg 77%
    21:00 +21°C° 0 mm 5 mps 757 mmHg 83%
    22:00 +20°C° 0 mm 5 mps 757 mmHg 88%
    23:00 +20°C° 0 mm 5 mps 757 mmHg 89%

    29 September, Saturday

    Time Temperature Precipitation Wind Pressure Humidity
    00:00 +20°C° 0 mm 5 mps 757 mmHg 91%
    01:00 +20°C° 0 mm 5 mps 756 mmHg 92%
    02:00 +20°C° 0 mm 4 mps 756 mmHg 92%
    03:00 +19°C° 0 mm 4 mps 756 mmHg 92%
    04:00 +19°C° 0 mm 4 mps 756 mmHg 93%
    05:00 +20°C° 0 mm 4 mps 757 mmHg 90%
    06:00 +20°C° 0 mm 4 mps 757 mmHg 87%
    07:00 +21°C° 0 mm 4 mps 758 mmHg 84%
    08:00 +23°C° 0 mm 4 mps 758 mmHg 71%
    09:00 +27°C° 0 mm 4 mps 758 mmHg 58%
    10:00 +29°C° 0 mm 5 mps 758 mmHg 46%
    11:00 +30°C° 0 mm 5 mps 757 mmHg 41%
    12:00 +32°C° 0 mm 5 mps 756 mmHg 36%
    13:00 +33°C° 0 mm 5 mps 756 mmHg 32%
    14:00 +33°C° 0 mm 5 mps 755 mmHg 33%
    15:00 +32°C° 0 mm 5 mps 755 mmHg 34%
    16:00 +32°C° 0 mm 5 mps 754 mmHg 35%
    17:00 +28°C° 0 mm 4 mps 755 mmHg 47%
    18:00 +26°C° 0 mm 4 mps 755 mmHg 60%
    19:00 +22°C° 0 mm 3 mps 756 mmHg 72%
    20:00 +21°C° 0 mm 3 mps 756 mmHg 79%
    21:00 +21°C° 0 mm 3 mps 757 mmHg 85%
    22:00 +20°C° 0 mm 3 mps 757 mmHg 92%
    23:00 +20°C° 0 mm 3 mps 757 mmHg 93%
    Show more